Miscellaneous Local Product
Issued by NWS North Platte, NE

Home | Current Version | Previous Version | Graphics & Text | Print | Product List | Glossary On
Versions: 1 2 3 4 5 6 7 8 9 10 11 12 13 14 15 16 17 18 19 20 21 22 23 24 25 26 27 28 29 30 31 32 33 34 35 36 37 38 39 40 41 42 43 44 45 46 47 48 49 50
988
AXUS43 KLBF 241610
MISLBF


WESTERN AND NORTH CENTRAL NEBRASKA HOURLY WEATHER ROUNDUP
NATIONAL WEATHER SERVICE NORTH PLATTE NE
1100 AM CDT WED MAY 24 2017

NOTE: "FAIR" INDICATES FEW OR NO CLOUDS BELOW 12,000 FEET WITH NO
SIGNIFICANT WEATHER AND/OR OBSTRUCTIONS TO VISIBILITY.

NOTE: STATIONS NOT REPORTING VARIABLES SUCH AS SKY/WEATHER OR
PRESSURE ARE PROVIDED BY RAWS AND APRS NETWORKS AND ARE NOT UNDER
NATIONAL WEATHER SERVICE QUALITY CONTROL.

...OBSERVATIONS IN AND NEAR THE EASTERN PANHANDLE OF NEBRASKA...

CITY           SKY/WX    TMP DP  RH WIND       PRES   REMARKS
PINE RIDGE     FAIR      61  41  47 S15       29.70F
GORDON         FAIR      58  37  46 S10G18    29.72F
CHADRON        FAIR      62  42  47 S13       29.67F
ALLIANCE       FAIR      58  39  49 S17G25    29.72F
SIDNEY         FAIR      57  42  57 S14G23    29.77F
CRESCENT LAKE    N/A     58  40  51 S8          N/A
$$

...OBSERVATIONS IN NORTHERN NEBRASKA AND FAR SOUTHERN SOUTH DAKOTA...

CITY           SKY/WX    TMP DP  RH WIND       PRES   REMARKS
WINNER         FAIR      57  43  59 MISG      29.77F
VALENTINE      FAIR      58  38  47 SE6       29.76F
THEDFORD       FAIR      56  38  51 CALM      29.79F
AINSWORTH      FAIR      54  42  64 CALM      29.78F
O`NEILL        PTSUNNY   55  41  60 CALM      29.80F
ORD            PTSUNNY   53  40  61 VRB3      29.79F
BROKEN BOW     PTSUNNY   54  41  61 S3        29.80F
VALENTINE NWR    N/A     55  37  50 CALM        N/A
HALSEY           N/A     57  38  49 CALM        N/A
BUTTE            N/A     54  43  66 E3          N/A
CHAMBERS         N/A     60  44  55 CALM        N/A
EWING            N/A     54  45  72 N3          N/A
$$

...OBSERVATIONS IN SOUTHWEST NEBRASKA AND FAR NORTHEAST COLORADO...

CITY           SKY/WX    TMP DP  RH WIND       PRES   REMARKS
WRAY           FAIR      59  37  44 S10       29.81F
IMPERIAL       FAIR      57  38  48 S7        29.80F
OGALLALA       FAIR      59  37  44 S8        29.78F
NORTH PLATTE   FAIR      56  38  50 CALM      29.80F
MCCOOK         FAIR      56  39  53 SW5       29.82F
LEXINGTON      FAIR      55  42  62 W5        29.82F
STAPLETON        N/A     58  39  49 CALM        N/A
GOTHENBURG       N/A     53  37  55 W3          N/A
CALLAWAY         N/A     53  43  68 NW3         N/A
$$

...OBSERVATIONS IN CENTRAL LINCOLN COUNTY AREA...

CITY           SKY/WX    TMP DP  RH WIND       PRES   REMARKS
N.P. AIRPORT   FAIR      56  38  50 CALM      29.80F
N.P. DOWNTOWN    N/A     56  37  49 CALM        N/A
N.P. SOUTHEAST   N/A     57  38  50 CALM        N/A
N.P. HILLCREST   N/A     56  40  55 CALM        N/A
$$

...SOME OBSERVATIONS FROM AROUND THE REGION...

CITY           SKY/WX    TMP DP  RH WIND       PRES   REMARKS
DENVER         FAIR      69  37  30 W8        29.79F
LIMON          FAIR      66  34  30 VRB5      29.83F
ASPEN          FAIR      58  31  35 N8        30.05F
LARAMIE        FAIR      63  34  33 MISG      29.86F
CASPER         FAIR      65  44  46 SW22G30   29.71F
CHEYENNE       FAIR      68  36  30 W18G25    29.79F
SCOTTSBLUFF    FAIR      61  42  49 E10       29.70F
GRAND ISLAND   FAIR      56  43  61 N6        29.81F
OMAHA          FAIR      59  48  67 N12       29.75F
SIOUX FALLS    PTSUNNY   56  48  74 NE5       29.78F
PIERRE         FAIR      57  41  55 SE10      29.72F
RAPID CITY     FAIR      60  40  47 S23       29.65F
BISMARCK       FAIR      60  39  45 S17       29.69F
KANSAS CITY    CLOUDY    56  49  77 N13       29.71S
HILL CITY      FAIR      57  39  51 NW6       29.84F
WICHITA        PTSUNNY   60  45  57 NW16G23   29.81F
DODGE CITY     FAIR      59  41  51 N5        29.85F
OKLAHOMA CITY  FAIR      63  42  46 NW15G24   29.84F
DALLAS         FAIR      72  44  36 NW15G22   29.85F
AMARILLO       FAIR      70  36  28 SW21G26   29.91F
$$




USA.gov is the U.S. government's official web portal to all federal, state and local government web resources and services.